Regional Weather Roundup
Issued by NWS

Home | Current Version | Previous Version | Graphics & Text | Print | Product List | Glossary On
Versions: 1 2 3 4 5 6 7 8 9 10 11 12 13 14 15 16 17 18 19 20 21 22 23 24 25 26 27 28 29 30 31 32 33 34 35 36 37 38 39 40 41 42 43 44 45 46 47 48 49 50
000
ASUS43 KLOT 191803
RWRIL

ILLINOIS REGIONAL WEATHER ROUNDUP
NATIONAL WEATHER SERVICE CHICAGO/ROMEOVILLE IL
1200 PM CST MON FEB 19 2018

NOTE: "FAIR" INDICATES FEW OR NO CLOUDS BELOW 12,000 FEET WITH NO
SIGNIFICANT WEATHER AND/OR OBSTRUCTIONS TO VISIBILITY.

* THESE STATIONS ARE NOT UNDER NWS QUALITY CONTROL. THEY ALSO MAY NOT
  REPORT WEATHER SUCH AS PRECIPITATION OR FOG.

ILZ001-002-007-009-015-016-024-191900-
NORTHWEST ILLINOIS

CITY           SKY/WX    TMP DP  RH WIND       PRES   REMARKS
MOLINE         FAIR      56  53  90 S14G24    29.68F
6HR MIN TEMP:  41; 6HR MAX TEMP:  56; 6HR PCP:  0.05;

STERLING*        N/A    N/A N/A N/A MISG        N/A
SAVANNA*       FOG       42  42 100 SE8       29.71F VSB 1/4
$$

ILZ003-004-008-010-011-017-018-191900-
NORTH CENTRAL ILLINOIS

CITY           SKY/WX    TMP DP  RH WIND       PRES   REMARKS
ROCKFORD       LGT RAIN  40  40 100 SE8       29.77F FOG
6HR MIN TEMP:  36; 6HR MAX TEMP:  41; 6HR PCP:  0.12;

FREEPORT*      CLOUDY    37  37 100 E9        29.75F FOG     WCI  30
ROCHELLE*      FOG       37  37 100 SE7       29.76F VSB 1/2 WCI  32
DE KALB*       DRZL/FOG  40  40 100 SE7       29.78F VSB 1/4
PERU*          FOG       46  46  99 S13       29.77F VSB<1/4
$$

ILZ005-006-012>014-019>023-191900-
NORTHEAST ILLINOIS

CITY           SKY/WX    TMP DP  RH WIND       PRES   REMARKS
CHICAGO-OHARE  LGT RAIN  43  41  93 SE6       29.78F VSB 1/2
6HR MIN TEMP:  37; 6HR MAX TEMP:  44; 6HR PCP:  0.08;

CHICAGO-MIDWAY LGT RAIN  48  48 100 S8        29.79F FOG
6HR MIN TEMP:  40; 6HR MAX TEMP:  48; 6HR PCP:  0.26;

AURORA         LGT RAIN  42  41  96 SE9       29.77F VSB<1/4
6HR MIN TEMP:  35; 6HR MAX TEMP:  42; 6HR PCP:  0.14;

LANSING*       HVY RAIN  45  45 100 S12       29.82F VSB 1/2
JOLIET*        DRZL/FOG  46  46 100 CALM      29.79F VSB<1/4
WAUKEGAN       LGT RAIN  39  39 100 E6        29.80F VSB 1/2 WCI  35
6HR MIN TEMP:  38; 6HR MAX TEMP:  41; 6HR PCP:  0.05;

DUPAGE AIRPORT FOG       44  44 100 SE7       29.77F VSB 1/4
6HR MIN TEMP:  36; 6HR MAX TEMP:  44;

KANKAKEE*      LGT RAIN  54  54  98 SW16      29.84S
WHEELING       LGT RAIN  46  45  96 SE5       29.80F VSB 1
6HR MIN TEMP:  39; 6HR MAX TEMP:  46; 6HR PCP:  0.07;

MORRIS*        FOG       43  43  99 S8        29.78F VSB<1/4
ROMEOVILLE*    DRZL/FOG  42  42 100 S9        29.79F VSB<1/4
NORTHERLY ISL    N/A     39  38  96 CALM        N/A
$$

LMZ740>746-191900-
SOUTHERN LAKE MICHIGAN

STATION/POSITION SKY/WX   TEMP    WIND        PRES    VSBY  WAVE
                          AIR SEA DIR/SP/G                  HT/PER
                          (F)     (DEG/KT/KT) (MB)    (MI)  (FT/S)
HARRISON CRIB              42     140/ 13/ 13   N/A
BURNHAM HARBOR             39      CALM  /  2   N/A
CALUMET HARBOR             46     150/  6/  7 1009.2F
BURNS HARBOR               50     170/ 12/ 17 1010.5F
MICHIGAN CITY              49     150/ 13/ 18   N/A
$$

ILZ025>027-034>036-040-047-049-050-058-095>099-191900-
WEST-CENTRAL ILLINOIS

CITY           SKY/WX    TMP DP  RH WIND       PRES   REMARKS
QUINCY         CLOUDY    62  56  80 S17       29.75F
GALESBURG*     PTSUNNY   58  57  97 S15G21    29.74S
MACOMB*        CLOUDY    60  57  91 S16G22    29.77F
JACKSONVILLE*  CLOUDY    61  56  83 S17G24    29.82F
PITTSFIELD*    CLOUDY    63  57  80 S16       29.81S
$$

ILZ028>032-037-038-041>044-048-051>054-059>061-191900-
CENTRAL ILLINOIS

CITY           SKY/WX    TMP DP  RH WIND       PRES   REMARKS
BLOOMINGTON    LGT RAIN  57  56  96 SW25G33   29.83S
DECATUR        CLOUDY    60  50  69 SW24G37   29.88S
PEORIA         CLOUDY    59  57  93 S20G30    29.79S
6HR MIN TEMP:  46; 6HR MAX TEMP:  59; 6HR PCP:  0.25;

LACON*         CLOUDY    56  56  98 S17G24    29.75F
LINCOLN*       CLOUDY    60  58  94 S8        29.84F
SPRINGFIELD    CLOUDY    62  58  86 S18G28    29.84F
6HR MIN TEMP:  52; 6HR MAX TEMP:  62; 6HR PCP:  0.17;

TAYLORVILLE    RAIN      58  57  94 S21G31    29.86F
6HR MIN TEMP:  52; 6HR MAX TEMP:  60; 6HR PCP:  0.54;

$$

ILZ033-039-045-046-055>057-062-063-191900-
EAST-CENTRAL ILLINOIS

CITY           SKY/WX    TMP DP  RH WIND       PRES   REMARKS
CHAMPAIGN      PTSUNNY   60  58  92 S33G39    29.88R
DANVILLE*      LGT RAIN  58  57  95 SW21G33   29.88R
RANTOUL*       HVY RAIN  60  59  96 SW18G26   29.88S
MATTOON        LGT RAIN  59  57  93 S24G37    29.92F
PARIS*         LGT RAIN  60  58  94 S26G37    29.93F
$$

ILZ079-100>102-191900-
SOUTHWEST ILLINOIS

CITY           SKY/WX    TMP DP  RH WIND       PRES   REMARKS
ALTON          LGT RAIN  59  59 100 S20G25    29.88F
BELLEVILLE     LGT RAIN  60  57  92 S13       29.92F
CAHOKIA*       LGT RAIN  60  57  89 S14G23    29.89F
SPARTA*        CLOUDY    63  60  89 S15G21    29.97S
$$

ILZ064>066-069>071-074>076-080>082-084>086-088>090-092>094-191900-
SOUTH-CENTRAL ILLINOIS

CITY           SKY/WX    TMP DP  RH WIND       PRES   REMARKS
CARBONDALE     CLOUDY    66  58  75 S26G39    29.99S
6HR MIN TEMP:  59; 6HR MAX TEMP:  67; 6HR PCP: TRACE;

CAIRO*         CLOUDY    65  60  85 S18G24    30.03F
EFFINGHAM*     RAIN      60  60  99 S15G22    29.98S
MARION         CLOUDY    64  59  82 SW21G35   30.01S
MT. VERNON     LGT RAIN  63  58  83 S18       29.97F
CENTRALIA*     LGT RAIN  62  59  93 S17       29.95F
SALEM*         RAIN      62  58  88 S10       29.96F
METROPOLIS*    CLOUDY    67  60  79 S13G22    30.04F
$$

ILZ067-068-072-073-078-083-087-091-191900-
SOUTHEAST ILLINOIS

CITY           SKY/WX    TMP DP  RH WIND       PRES   REMARKS
LAWRENCEVILLE  CLOUDY    65  60  84 SW23      30.01F
FLORA*         LGT RAIN  64  60  87 S10       29.99F
FAIRFIELD*     CLOUDY    65  59  81 S10G20    30.00S
HARRISBURG*    CLOUDY    68  61  78 SW18G29   30.01F
ROBINSON*      LGT RAIN  61  59  93 SW18G25   30.01R
CARMI*         CLOUDY    67  59  76 S22G32    30.01F
$$

ABBREVIATIONS USED IN REMARKS
   TC - TEMPERATURE IN CELSIUS
  WCI - WIND CHILL INDEX
   HX - HEAT INDEX
  VSB - VISIBILITY
$$





USA.gov is the U.S. government's official web portal to all federal, state and local government web resources and services.